Content
SEND FEEDBACK

Daily
Averages
Monthly
Summary
France

LE HAVRE, FRANCE


Home > Europe > France
Elevation: 338 feet     Latitude: 49 31N     Longitude: 000 04E

WEATHER
 
SELECT A DAY
Number of Records: 175,964;   Date Range: 3/4/97 - 7/23/14
 
SHARE

PRINT THIS DATA

[ ← Previous Day ]
WEATHER ALMANAC - MAY 17, 2013
[ Next Day → ]
[ °C ]   °F
Weather ElementAverageHighLow
Temperature50 °F57.2 °F (2:00 pm)42.8 °F (4:30 am)
Dewpoint43.3 °F48.2 °F (3:30 pm)39.2 °F (2:30 am)
Humidity78.1 %93 % (10:30 am)63 % (5:30 pm)
Barometer29.63 in29.77 in (10:00 pm)29.50 in (1:30 am)
Wind Speed9.5 mph18.4 mph (4:30 pm)
Weather ElementAverage
Visibility5.9 mi
Wind DirectionENE (72.3 °)

Weather ElementTotal
Precipitation---
Heating Degree Days15 (Base 65)
Averaged from 47 records on May 17, 2013
WEATHER CONDITIONS BREAKOUT
WIND DIRECTION BREAKOUT
WEATHER BY HOUR - MAY 17, 2013
[ °C ]   °F
Local TimeTemperatureDewpointHumidityBarometerVisibilityWind DirectionWind SpeedGust SpeedPrecipitationEventsConditions
12:30 AM48.2 °F42.8 °F82 %29.53 in6.2 miEast (90°)8.1 mph
1:00 AM46.4 °F41.0 °F81 %29.53 in6.2 miEast (90°)9.2 mph
1:30 AM46.4 °F41.0 °F81 %29.50 in6.2 miEast (90°)5.8 mph
2:00 AM46.4 °F41.0 °F81 %29.53 in6.2 miESE (120°)5.8 mph
2:30 AM46.4 °F39.2 °F76 %29.50 in6.2 miSE (130°)4.6 mph
3:00 AM46.4 °F39.2 °F76 %29.50 in6.2 miESE (110°)5.8 mph
3:30 AM46.4 °F41.0 °F81 %29.50 in6.2 miESE (110°)6.9 mph
4:00 AM44.6 °F39.2 °F81 %29.50 in6.2 miEast (100°)6.9 mph
4:30 AM42.8 °F39.2 °F87 %29.53 in6.2 miNorth (10°)4.6 mphMostly Cloudy
5:00 AM44.6 °F41.0 °F87 %29.53 in6.2 miNNE (30°)4.6 mphOvercast
5:30 AM46.4 °F42.8 °F87 %29.53 in6.2 miNNW (340°)4.6 mphOvercast
6:00 AM46.4 °F42.8 °F87 %29.56 in6.2 miNNE (30°)4.6 mphOvercast
6:30 AM46.4 °F42.8 °F87 %29.56 in6.2 miEast (80°)4.6 mphOvercast
7:00 AM44.6 °F41.0 °F87 %29.56 in6.2 miEast (80°)5.8 mphScattered Clouds
7:30 AM44.6 °F41.0 °F87 %29.56 in6.2 miEast (90°)5.8 mphPartly Cloudy
8:00 AM46.4 °F42.8 °F87 %29.59 in6.2 miEast (80°)5.8 mph
8:30 AM46.4 °F42.8 °F87 %29.59 in6.2 miEast (80°)4.6 mph
9:00 AM48.2 °F44.6 °F87 %29.59 in6.2 miENE (70°)9.2 mphOvercast
9:30 AM48.2 °F44.6 °F87 %29.62 in6.2 miENE (70°)10.4 mphOvercast
10:00 AM48.2 °F44.6 °F87 %29.62 in3.1 miENE (70°)11.5 mphOvercast
10:30 AM48.2 °F46.4 °F93 %29.62 in3.1 miEast (80°)10.4 mphOvercast
11:00 AM50.0 °F46.4 °F87 %29.62 in3.1 miENE (70°)11.5 mphOvercast
11:30 AM50.0 °F44.6 °F82 %29.65 in3.7 miENE (70°)12.7 mphOvercast
12:00 PM53.6 °F44.6 °F72 %29.65 in6.2 miEast (90°)11.5 mphOvercast
12:30 PM51.8 °F46.4 °F82 %29.65 in6.2 miENE (70°)9.2 mphOvercast
1:00 PM53.6 °F44.6 °F72 %29.65 in6.2 miEast (90°)9.2 mphOvercast
1:30 PM55.4 °F44.6 °F67 %29.65 in6.2 miEast (80°)5.8 mphOvercast
2:00 PM57.2 °F46.4 °F67 %29.65 in5.6 miNE (40°)10.4 mphMostly Cloudy
2:30 PM55.4 °F46.4 °F72 %29.65 in6.2 miNE (40°)11.5 mphMostly Cloudy
3:00 PM57.2 °F46.4 °F67 %29.65 in6.2 miNNE (30°)12.7 mphMostly Cloudy
3:30 PM57.2 °F48.2 °F72 %29.65 in6.2 miNNE (30°)15.0 mphMostly Cloudy
4:00 PM57.2 °F48.2 °F72 %29.65 in6.2 miNNE (30°)16.1 mphPartly Cloudy
4:30 PM57.2 °F46.4 °F67 %29.68 in6.2 miNE (40°)18.4 mphPartly Cloudy
5:00 PM55.4 °F44.6 °F67 %29.65 in6.2 miNE (40°)18.4 mphMostly Cloudy
5:30 PM57.2 °F44.6 °F63 %29.68 in6.2 miNE (50°)17.3 mphPartly Cloudy
6:00 PM55.4 °F44.6 °F67 %29.68 in6.2 miNE (50°)13.8 mphPartly Cloudy
6:30 PM53.6 °F44.6 °F72 %29.71 in6.2 miENE (60°)13.8 mphMostly Cloudy
7:00 PM53.6 °F44.6 °F72 %29.71 in6.2 miNNE (30°)13.8 mph
7:30 PM53.6 °F42.8 °F67 %29.71 in6.2 miNNE (30°)13.8 mph
8:00 PM51.8 °F42.8 °F71 %29.74 in6.2 miNE (50°)8.1 mph
8:30 PM51.8 °F42.8 °F71 %29.74 in6.2 miEast (80°)6.9 mph
9:00 PM50.0 °F42.8 °F76 %29.74 in6.2 miENE (60°)8.1 mph
9:30 PM50.0 °F41.0 °F71 %29.74 in6.2 miENE (60°)10.4 mph
10:00 PM48.2 °F41.0 °F76 %29.77 in6.2 miENE (60°)9.2 mph
10:30 PM48.2 °F41.0 °F76 %29.77 in6.2 miENE (60°)10.4 mph
11:00 PM48.2 °F42.8 °F82 %29.77 in6.2 miENE (70°)9.2 mph
11:30 PM46.4 °F42.8 °F87 %29.77 in6.2 miENE (70°)9.2 mph
Hourly data recorded from LFOH, located miles away from Le Havre, France







STORIES FROM OUR PARTNERS